Location: Zihuatanejo
(17.6330°N, 101.5500°W)
Time: 11:55:18
(UTC-06:00)

Daily predictions for brighter satellites

Satellite Brightness Start Highest point End
(mag) Time Altitude Azimuth Time Altitude Azimuth Time Altitude Azimuth
SL-16 R/B 3.0 19:03:44 10° N 19:08:38 30° ENE 19:13:29 10° SE
ATLAS 2A CENTAUR R/B 3.9 18:55:30 10° WNW 19:13:40 70° SSW 19:19:58 10° SE
ORS 1 (USA 231) 3.8 19:15:42 10° NW 19:18:08 89° E 19:20:33 10° SE
USA 215 3.4 19:16:54 10° NE 19:23:26 79° NW 19:29:56 10° SW
Aurora 2 Rocket 3.8 19:21:13 10° SSW 19:24:13 23° SSE 19:27:41 11° E
MOS 1 4.2 19:21:23 10° SSE 19:27:01 79° ENE 19:32:41 10° N
Cosmos 2263 Rocket 2.5 19:21:51 10° S 19:27:01 41° ESE 19:32:13 10° NE
Cosmos 1812 3.1 19:25:05 10° N 19:28:55 69° W 19:32:45 10° S
Cosmos 494 Rocket 3.9 19:24:55 10° S 19:30:07 70° ESE 19:35:18 10° NNE
Cosmos 1602 3.6 19:29:05 10° S 19:32:59 77° E 19:36:52 10° N
NOAA 12 4.2 19:29:17 10° S 19:34:33 85° WSW 19:39:52 10° NNW
Meteor 1-4 Rocket 2.6 19:31:28 10° S 19:34:48 48° E 19:38:12 10° NNE
Lacrosse 5 2.9 19:31:11 10° NW 19:36:01 48° WSW 19:40:51 10° SSE
Cosmos 1891 Rocket 4.4 19:30:12 10° N 19:36:13 60° E 19:42:08 10° SSE
Cosmos 2034 Rocket 4.2 19:31:01 10° N 19:37:09 50° E 19:43:13 10° SSE
Cosmos 1975 Rocket 3.7 19:36:26 10° NNE 19:40:27 33° E 19:44:28 10° SSE
Okean 1 3.4 19:37:21 10° N 19:41:13 51° E 19:45:03 10° SSE
USA 32 4.4 19:38:10 10° S 19:43:22 70° W 19:48:34 10° N
FREGAT/IRIS 2.9 19:41:48 10° SSE 19:44:36 41° ENE 19:47:24 10° N
CZ-3A R/B 3.0 19:41:32 10° W 19:44:59 31° SSW 19:47:12 11° SE
CRYOSAT 2 4.3 19:45:29 10° NNE 19:50:17 62° E 19:55:03 10° S
CZ-3C R/B 1.5 19:48:33 10° W 19:51:28 69° N 19:57:13 21° ENE
Thor Agena Rocket 3.4 19:48:18 10° NNE 19:53:21 84° ESE 19:58:23 10° S
Tiangong 2 2.1 19:53:04 10° NNW 19:55:47 30° NE 19:55:47 30° NE
Meteor 1-5 Rocket 4.4 19:52:38 10° SSE 19:58:13 51° E 20:03:55 10° NNE
Cosmos 1378 Rocket 4.4 19:55:32 10° NNW 19:59:49 52° W 20:04:08 10° S
Cosmos 1536 2.9 19:56:15 10° S 20:00:10 52° E 20:04:06 10° NNE
Tiangong 1 1.8 20:00:40 10° SW 20:02:04 30° SSW 20:02:04 30° SSW
Lacrosse 5 rocket 1.8 20:00:22 10° SW 20:04:04 51° WNW 20:06:33 18° NNE
Iridium 4 Rocket 4.4 20:04:57 10° NNW 20:09:05 40° W 20:13:00 10° SSW
Delta R/B 4.2 20:07:47 10° WSW 20:08:55 19° SSW 20:08:55 19° SSW
Meteor 2-4 Rocket 4.1 20:04:30 10° NNE 20:09:39 36° E 20:10:03 36° E
OAO 3 Copernicus 4.5 20:05:50 10° WSW 20:10:50 69° NNW 20:12:58 34° NE
Meteor 1-11 Rocket 4.0 20:08:33 10° SSW 20:14:02 68° W 20:19:37 10° N
Meteosat 1 Rocket2 4.5 20:09:33 10° SW 20:14:29 40° SE 20:16:20 34° ESE
Cosmos 44 Rocket 3.6 20:09:45 10° NNW 20:14:52 73° WSW 20:20:00 10° SSE
GPS 2-12 Rocket1 3.0 20:10:52 10° W 20:15:40 88° NNE 20:16:45 54° E
Meteor 1-19 Rocket 4.0 20:12:59 10° N 20:18:32 75° E 20:24:09 10° S
Geosat 4.4 20:21:24 10° NNE 20:26:21 62° WNW 20:31:17 10° SSW
ERS-2 3.5 20:23:07 10° S 20:26:35 40° W 20:30:03 10° NNW
Cosmos 2251 Rocket 4.4 20:22:37 10° SSW 20:27:39 48° WNW 20:32:41 10° N
GPS 2-14 Rocket1 3.0 20:25:23 10° W 20:29:21 64° SSW 20:29:21 64° SSW
Cosmos 2151 Rocket 4.5 20:30:52 10° SSW 20:35:13 49° W 20:39:33 10° N
PSLV R/B 4.0 20:35:20 10° W 20:46:34 81° W 20:46:34 81° W
SJ-6B 4.4 20:47:57 32° W 20:47:57 32° W 20:51:23 10° NW
IUS-1 SRM-2 3.7 20:25:57 10° WNW 20:49:50 74° NNE 20:50:30 68° ENE
Envisat 3.9 20:56:19 10° S 21:01:10 47° W 21:06:02 10° NNW
Centaur D-1AR AC-48 3.6 21:01:58 10° W 21:35:42 80° WNW 21:35:42 80° WNW
